Lexington Weather

Lexington, Massachusetts, USA

52°F
10/17/2021 9:25pm 
  • Lexington Conditions: Partly cloudy
  • Temperature: 52.3°F / 11.3°CColder 1.1°F than last hour.
  • Dew Point: 46.9°FDecreased 0.8°Fsince last hour.
  • Relative Humidity: 82%Increased 1.0% since last hour.
  • Wind: Wind from SW SW Calm, 10-min avg: 1 mph, gust: 6 mph
  • Barometer: 29.67 in Steady
  • Visibility: 10 miles
  • Rain Today: 0.35 in
  •   

Regional Weather Roundup
for Boston / Norton, MA

        
000
ASUS41 KBOX 131404
RWRBOX

REGIONAL WEATHER ROUNDUP
NATIONAL WEATHER SERVICE BOSTON/NORTON MA
1000 AM EDT WED OCT 13 2021

NOTE:  "FAIR" INDICATES FEW OR NO CLOUDS BELOW 12,000 FEET WITH NO 
SIGNIFICANT WEATHER AND/OR OBSTRUCTIONS TO VISIBILITY.

MAZALL-131500-
EASTERN MASSACHUSETTS
  
CITY           SKY/WX    TMP DP  RH WIND       PRES   REMARKS
BOSTON         MOSUNNY   68  57  68 S3        30.03S                  
BEVERLY        SUNNY     68  59  73 SW5       30.02S                  
LAWRENCE       SUNNY     65  57  75 SW5       30.04S                  
BEDFORD        SUNNY     66  59  78 VRB6      30.02S                  
BLUE HILL      NOT AVBL                                               
NORWOOD        SUNNY     67  58  72 SW5       30.03S                  
MARSHFIELD     SUNNY     68  57  68 VRB3      30.03S                  
PLYMOUTH       SUNNY     66  59  78 W3        30.04F                  
TAUNTON        SUNNY     66  59  78 W5        30.04S                  
NEW BEDFORD    SUNNY     67  60  78 SW6       30.04S                  
$$

MAZALL-131500-
CAPE COD AND THE ISLANDS
  
CITY           SKY/WX    TMP DP  RH WIND       PRES   REMARKS
FALMOUTH       SUNNY     66  59  77 W9        30.04F                  
HYANNIS        SUNNY     68  60  75 W6        30.03F                  
CHATHAM        SUNNY     67  60  78 SW6       30.05F                  
PROVINCETOWN   SUNNY     66  58  75 SW7       30.05S                  
NANTUCKET      SUNNY     68  57  68 VRB3      30.05S                  
MARTHAS VNYRD  MOSUNNY   67  62  84 SW5       30.05F                  
$$
 
MAZALL-131500-
CENTRAL AND WESTERN MASSACHUSETTS
  
CITY           SKY/WX    TMP DP  RH WIND       PRES   REMARKS
WORCESTER      NOT AVBL                                               
FITCHBURG      SUNNY     67  56  67 W9        30.03F                  
ORANGE         CLOUDY    56  55  97 CALM      30.06F                  
SPRINGFIELD    FOG       55  55 100 CALM      30.05S VSB 3/8          
WESTFIELD      FOG       55  55 100 CALM      30.06S VSB 1/4          
NORTH ADAMS    CLOUDY    59  55  87 CALM      30.05F                  
PITTSFIELD     CLOUDY    56  55  97 CALM      30.05S FOG              
$$
 
RIZALL-131500-
RHODE ISLAND
  
CITY           SKY/WX    TMP DP  RH WIND       PRES   REMARKS
PROVIDENCE     MOSUNNY   66  60  81 W3        30.06S                  
NEWPORT        SUNNY     64  60  87 CALM      30.05S                  
BLOCK ISLAND   SUNNY     64  59  83 CALM      30.07S                  
SMITHFIELD     SUNNY     64  60  87 CALM      30.05S                  
WESTERLY       SUNNY     64  59  83 CALM      30.05F                  
$$
 
CTZALL-131500-
CONNECTICUT
  
CITY           SKY/WX    TMP DP  RH WIND       PRES   REMARKS
BRADLEY INTL   FOG       57  57 100 CALM      30.06S VSB 1/2          
HARTFORD       FOG       58  56  93 VRB3      30.06S VSB 1/4          
BRIDGEPORT     CLOUDY    65  62  90 SE3       30.05S                  
DANBURY        CLOUDY    65  59  81 W5        30.06S                  
GROTON         MOSUNNY   63  60  90 CALM      30.05S                  
NEW HAVEN      CLOUDY    66  62  87 CALM      30.06S                  
CHESTER        FAIR      66  63  88 CALM      30.06                   
MERIDEN        CLOUDY    59  57  93 CALM      30.06S                  
WILLIMANTIC    FOG       54  54 100 CALM      30.06F VSB 1/4          
OXFORD         CLOUDY    61  59  93 SW3       30.07S                  
$$

MEZ002-015-021-024-NHZ003-005-008-011-012-014-VTZ005-008-131500-
NORTHERN NEW ENGLAND
  
CITY           SKY/WX    TMP DP  RH WIND       PRES   REMARKS
PORTLAND ME    MOSUNNY   65  58  78 CALM      30.01F                  
BANGOR ME      PTSUNNY   63  58  83 S3        30.00F                  
CONCORD NH     MOSUNNY   59  54  83 CALM      30.03S                  
MANCHESTER NH  MOSUNNY   61  54  77 CALM      30.01F                  
NASHUA NH      SUNNY     65  61  87 CALM      30.03F                  
PORTSMOUTH NH  MOSUNNY   66  56  71 CALM      30.02F                  
JAFFREY NH     MOSUNNY   56  54  93 S7        30.05F                  
KEENE NH       CLOUDY    54  53  97 CALM      30.06F                  
BURLINGTON VT  MOSUNNY   66  58  75 SW9       30.00S                  
MT. WASHINGTON MOSUNNY   55  34  44 S14         N/A                   
$$

NYZ052-076-131500-
EASTERN NEW YORK
  
CITY           SKY/WX    TMP DP  RH WIND       PRES   REMARKS
ALBANY         CLOUDY    59  57  93 S3        30.05S FOG              
NEW YORK CITY  CLOUDY    68  59  73 NW6       30.04S                  
$$
 
ANZALL-131500-
MARINE OBSERVATIONS
  
STATION/POSITION TIME  TEMP    WIND        PRES    VSBY  WAVE
                       AIR SEA DIR/SP/G                  HT/PER
                 (UTC) (F)     (DEG/KT/KT) (MB)    (MI)  (FT/S)
BOSTON BUOY      1340      63  240/  6/  8 1017.2F
BUZZARDS BAY     1300          260/  3/  4 1018.7F
NANTUCKET SOUND  1340   65 66  250/  6/  8 1017.4F
MASS BAY-STELLWA 1304   62     240/  6/  8 1016.4S  1 7/8  3/ 8
ISLE OF SHOALS   1300   60     240/  7/  7 1016.1F
S OF BLOCK IS    1326      64                N/A           3/ 9
$$

......................KEY.........................
  SKY/WX - SKY CONDITION/PRESENT WEATHER
  TMP    - TEMPERATURE IN FAHRENHEIT
  DWPT   - DEWPOINT IN FAHRENHEIT
  RH     - RELATIVE HUMIDITY IN PERCENT
  WIND   - DIRECTION AND SPEED IN MPH
  PRES   - MEAN SEA LEVEL PRESSURE IN INCHES OF HG
  WCI    - WIND CHILL INDEX
  VSB    - VISIBILITY IN MILES
  HX     - HEAT INDEX
  TC     - TEMPERATURE IN CELSIUS
  VRB    - VARIABLE WIND DIRECTION
  N/A    - NOT AVAILABLE
  
      

Other recent Regional Weather Roundups

Sun Oct 17, 9:04pm

Sun Oct 17, 8:04pm

Sun Oct 17, 7:04pm

Sun Oct 17, 6:04pm

Sun Oct 17, 5:04pm

Sun Oct 17, 4:04pm

Sun Oct 17, 3:04pm

Sun Oct 17, 2:04pm

Sun Oct 17, 1:04pm

Sun Oct 17, 12:04pm

Sun Oct 17, 11:04am

Sun Oct 17, 10:04am

Sun Oct 17, 9:04am

Sun Oct 17, 8:04am

Sun Oct 17, 7:04am

Sun Oct 17, 6:04am

Sun Oct 17, 5:04am

Sun Oct 17, 4:04am

Sun Oct 17, 3:04am

Sun Oct 17, 2:04am

Sun Oct 17, 1:04am

Sun Oct 17, 12:04am

Sat Oct 16, 11:04pm

Sat Oct 16, 10:04pm

Sat Oct 16, 9:04pm

Sat Oct 16, 8:04pm

Sat Oct 16, 7:04pm

Sat Oct 16, 6:04pm

Sat Oct 16, 5:04pm

Sat Oct 16, 4:04pm

Sat Oct 16, 3:04pm

Sat Oct 16, 2:04pm

Sat Oct 16, 1:04pm

Sat Oct 16, 12:04pm

Sat Oct 16, 11:04am

Sat Oct 16, 10:04am

Sat Oct 16, 9:04am

Sat Oct 16, 8:04am

Sat Oct 16, 7:04am

Sat Oct 16, 6:04am

Sat Oct 16, 5:04am

Sat Oct 16, 4:04am

Sat Oct 16, 3:04am

Sat Oct 16, 2:04am

Sat Oct 16, 1:04am

Sat Oct 16, 12:04am

Fri Oct 15, 11:04pm

Fri Oct 15, 10:04pm

Fri Oct 15, 9:04pm

Fri Oct 15, 8:04pm

Fri Oct 15, 7:04pm

Fri Oct 15, 6:04pm

Fri Oct 15, 5:04pm

Fri Oct 15, 4:04pm

Fri Oct 15, 3:04pm

Fri Oct 15, 2:05pm

Fri Oct 15, 1:05pm

Fri Oct 15, 12:04pm

Fri Oct 15, 11:05am

Fri Oct 15, 10:04am

Fri Oct 15, 9:04am

Fri Oct 15, 8:04am

Fri Oct 15, 7:04am

Fri Oct 15, 6:04am

Fri Oct 15, 5:04am

Fri Oct 15, 4:04am

Fri Oct 15, 3:05am

Fri Oct 15, 2:04am

Fri Oct 15, 1:04am

Fri Oct 15, 12:04am

Thu Oct 14, 11:04pm

Thu Oct 14, 10:04pm

Thu Oct 14, 9:04pm

Thu Oct 14, 8:04pm

Thu Oct 14, 7:04pm

Thu Oct 14, 6:04pm

Thu Oct 14, 5:04pm

Thu Oct 14, 4:04pm

Thu Oct 14, 3:04pm

Thu Oct 14, 2:04pm

Thu Oct 14, 1:04pm

Thu Oct 14, 12:04pm

Thu Oct 14, 11:04am

Thu Oct 14, 10:04am

Thu Oct 14, 9:04am

Thu Oct 14, 8:04am

Thu Oct 14, 7:04am

Thu Oct 14, 6:04am

Thu Oct 14, 5:04am

Thu Oct 14, 4:04am

Thu Oct 14, 3:04am

Thu Oct 14, 2:04am

Thu Oct 14, 1:04am

Thu Oct 14, 12:04am

Wed Oct 13, 11:04pm

Wed Oct 13, 10:04pm

Wed Oct 13, 9:04pm

Wed Oct 13, 8:04pm

Wed Oct 13, 7:04pm

Wed Oct 13, 6:04pm

Wed Oct 13, 5:04pm

Wed Oct 13, 4:04pm

Wed Oct 13, 3:04pm

Wed Oct 13, 2:04pm

Wed Oct 13, 1:04pm

Wed Oct 13, 12:04pm

Wed Oct 13, 11:04am

Wed Oct 13, 9:04am

Wed Oct 13, 8:04am

Wed Oct 13, 7:04am

Wed Oct 13, 6:04am

Wed Oct 13, 5:04am

Wed Oct 13, 4:04am

Wed Oct 13, 3:04am

Wed Oct 13, 2:04am

Wed Oct 13, 1:04am

Wed Oct 13, 12:04am

Tue Oct 12, 11:04pm

Tue Oct 12, 10:04pm

Tue Oct 12, 9:04pm

Tue Oct 12, 8:04pm

Tue Oct 12, 7:04pm

Tue Oct 12, 6:04pm

Tue Oct 12, 5:04pm

Tue Oct 12, 4:04pm

Tue Oct 12, 3:04pm

Tue Oct 12, 2:04pm

Tue Oct 12, 1:04pm

Tue Oct 12, 12:04pm

Tue Oct 12, 11:05am

Tue Oct 12, 10:04am

Tue Oct 12, 9:04am

Tue Oct 12, 8:04am

Tue Oct 12, 7:04am

Tue Oct 12, 6:04am

Tue Oct 12, 5:04am

Tue Oct 12, 4:04am

Tue Oct 12, 3:04am

Tue Oct 12, 2:04am

Tue Oct 12, 1:04am

Tue Oct 12, 12:04am

Mon Oct 11, 11:04pm

Mon Oct 11, 10:04pm

Mon Oct 11, 9:04pm

Mon Oct 11, 8:04pm

Mon Oct 11, 7:04pm

Mon Oct 11, 6:04pm

Mon Oct 11, 5:04pm

Mon Oct 11, 4:04pm

Mon Oct 11, 3:04pm

Mon Oct 11, 2:04pm

Mon Oct 11, 1:04pm

Mon Oct 11, 12:04pm

Mon Oct 11, 11:04am

Mon Oct 11, 10:04am

Mon Oct 11, 9:04am

Mon Oct 11, 8:04am

Mon Oct 11, 7:04am

Mon Oct 11, 6:04am

Mon Oct 11, 5:04am

Mon Oct 11, 4:04am

Mon Oct 11, 3:04am

Mon Oct 11, 2:04am

Mon Oct 11, 1:04am

Mon Oct 11, 12:05am

Sun Oct 10, 11:04pm

Sun Oct 10, 10:04pm

Meta data:

ID: d4156494-ee78-4fba-bda0-47b1b3a1d665
Link: https://api.weather.gov/products/d4156494-ee78-4fba-bda0-47b1b3a1d665